Regional Weather Roundup
Issued by NWS

Home | Current Version | Previous Version | Text Only | Print | Product List | Glossary Off
Versions: 1 2 3 4 5 6 7 8 9 10 11 12 13 14 15 16 17 18 19 20 21 22 23 24 25 26 27 28 29 30 31 32 33 34 35 36 37 38 39 40 41 42 43 44 45 46 47 48 49 50

000
ASUS43 KLMK 230210
RWRKY
KENTUCKY REGIONAL WEATHER ROUNDUP
NATIONAL WEATHER SERVICE LOUISVILLE KY
1000 PM EDT SUN OCT 22 2017

NOTE "FAIR" INDICATES FEW OR NO CLOUDS BELOW 12,000 FEET
WITH NO SIGNIFICANT WEATHER AND/OR OBSTRUCTIONS TO VISIBILITY.

KYZ001>023-026-027-061>063-070>075-230300-
WESTERN AND SOUTH CENTRAL KENTUCKY

CITY           SKY/WX    TMP DP  RH WIND       PRES   REMARKS
PADUCAH        RAIN      61  58  90 NW5       29.91F FOG
HENDERSON      RAIN      67  65  93 S8        29.95F
OWENSBORO      CLOUDY    73  60  63 SE10      29.95F
HOPKINSVILLE   MOCLDY    67  67  99 E3        29.93F
BOWLING GREEN  CLOUDY    72  61  68 SE9       29.99F
GLASGOW        CLOUDY    71  58  62 SE9       30.01F
$$

KYZ024-025-028>034-038-045-046-053-230300-
NORTH CENTRAL KENTUCKY

CITY           SKY/WX    TMP DP  RH WIND       PRES   REMARKS
LOUISVILLE/SDF CLOUDY    71  58  63 SE10      30.01F
LOUISVILLE/LOU CLOUDY    70  59  68 SE9       30.02F
FORT KNOX      CLOUDY    70  58  64 SE6       30.00F
$$

KYZ035>037-039>044-047>052-055>060-089>105-230300-
NORTHEAST KENTUCKY

CITY           SKY/WX    TMP DP  RH WIND       PRES   REMARKS
LEXINGTON      PTCLDY    68  53  58 SE9       30.07F
COVINGTON      CLOUDY    67  53  61 SE14      30.06F
FRANKFORT      MOCLDY    66  53  63 SE8       30.04F
$$

KYZ054-064>069-076>088-106>120-230300-
SOUTHEAST KENTUCKY

CITY           SKY/WX    TMP DP  RH WIND       PRES   REMARKS
JACKSON        PTCLDY    67  49  52 SE7       30.14F
LONDON         MOCLDY    64  51  62 CALM      30.11F
SOMERSET       MOCLDY    64  52  63 S5        30.09F
MIDDLESBORO    MOCLDY    60  56  84 CALM      30.14F
MONTICELLO     CLOUDY    68  57  68 VRB7      30.09F
$$





USA.gov is the U.S. government's official web portal to all federal, state and local government web resources and services.